Printer-friendly version
Follow the MPC on Twitter Follow the MPC on Facebook The MPC blog
Minor Planet Center

MPEC 2007-V68 : 2007 VO84

The following Minor Planet Electronic Circular may be linked-to from your own Web pages, but must not otherwise be redistributed electronically.

A form allowing access to any MPEC is at the bottom of this page.


Read MPEC 2007-V67 Read MPEC 2007-V69


M.P.E.C. 2007-V68                                Issued 2007 Nov. 8, 20:13 UT

     The Minor Planet Electronic Circulars contain information on unusual
         minor planets and routine data on comets.  They are published
   on behalf of Commission 20 of the International Astronomical Union by the
          Minor Planet Center, Smithsonian Astrophysical Observatory,
                          Cambridge, MA 02138, U.S.A.

             Prepared using the Tamkin Foundation Computer Network

                              MPC@CFA.HARVARD.EDU
          URL http://www.cfa.harvard.edu/iau/mpc.html  ISSN 1523-6714

                                   2007 VO84

Observations:
     K07V84O* C2007 11 08.31270 03 22 54.87 +12 54 50.3          20.5 V EV068G96
     K07V84O  C2007 11 08.31876 03 22 52.10 +12 55 48.7          19.7 V EV068G96
     K07V84O  C2007 11 08.32472 03 22 49.47 +12 56 45.7          20.3 V EV068G96
     K07V84O  C2007 11 08.33067 03 22 46.84 +12 57 42.6          20.0 V EV068G96
     K07V84O tC2007 11 08.39923 03 22 16.22 +13 08 38.4                 EV068291
     K07V84O tC2007 11 08.40306 03 22 14.44 +13 09 18.8                 EV068291
     K07V84O  C2007 11 08.40616 03 22 13.04 +13 09 45.2          20.6 V EV068G96
     K07V84O  C2007 11 08.40671 03 22 12.86 +13 09 50.6          20.2 V EV068G96
     K07V84O tC2007 11 08.40684 03 22 12.80 +13 09 52.5                 EV068291
     K07V84O  C2007 11 08.40713 03 22 12.68 +13 09 54.0          20.4 V EV068G96
     K07V84O  C2007 11 08.40755 03 22 12.46 +13 09 58.2          20.4 V EV068G96
     K07V84O  C2007 11 08.46780 03 21 45.82 +13 19 31.9          20.1 V EV068G96
     K07V84O  C2007 11 08.46822 03 21 45.61 +13 19 36.2          20.1 V EV068G96
     K07V84O  C2007 11 08.46876 03 21 45.39 +13 19 40.6          21.5 V EV068G96
     K07V84O  C2007 11 08.46920 03 21 45.21 +13 19 45.3          20.4 V EV068G96

Observer details:
291 LPL/Spacewatch II.  Observer R. S. McMillan.  1.8-m f/2.7 reflector + CCD.
G96 Mt. Lemmon Survey.  Observer R. E. Hill.  Measurers E. C. Beshore,
    A. Boattini, G. J. Garradd, A. R. Gibbs, A. D. Grauer, R. E. Hill,
    R. A. Kowalski, S. M. Larson, R. H. McNaught.  1.5-m reflector + CCD.

Orbital elements:
2007 VO84                                                Earth MOID = 0.1479 AU
Epoch 2007 Oct. 27.0 TT = JDT 2454400.5                 MPC
M  26.73447              (2000.0)            P               Q
n   0.53152362     Peri.  292.33588     +0.85089413     +0.37823552
a   1.5093421      Node    47.68337     -0.05782676     +0.75720700
e   0.3532323      Incl.   29.54117     -0.52214486     +0.53251803
P   1.85           H   23.4           G   0.15           U   9
Residuals in seconds of arc
071108 G96  0.0   0.1+    071108 291  0.6-  2.3+    071108 G96  0.1+  0.6-
071108 G96  0.7-  0.2+    071108 G96  0.4-  0.4-    071108 G96  0.0   0.1-
071108 G96  0.1-  0.1-    071108 G96  0.5+  0.2-    071108 G96  0.4-  0.2+
071108 G96  0.5+  0.4-    071108 291  0.1+  0.1-    071108 G96  0.1-  0.5-
071108 291  0.5+  1.5-    071108 G96  0.6+  0.8-    071108 G96  0.1+  0.0

Ephemeris:
2007 VO84                a,e,i = 1.51, 0.35, 30                  q = 0.9762
Date    TT    R. A. (2000) Decl.     Delta      r     Elong.  Phase     V
2007 11 06    03 39.83   +06 25.0    0.159    1.144   163.1    14.6    20.5
2007 11 07    03 32.44   +09 18.1    0.162    1.149   166.9    11.3    20.4
2007 11 08    03 25.16   +12 04.5    0.165    1.154   170.6     8.1    20.4
2007 11 09    03 18.04   +14 43.2    0.169    1.159   174.0     5.1    20.3
2007 11 10    03 11.09   +17 13.5    0.173    1.164   177.0     2.6    20.2
2007 11 11    03 04.32   +19 34.8    0.178    1.169   177.6     2.0    20.2
2007 11 12    02 57.77   +21 47.0    0.184    1.174   175.2     4.0    20.4
2007 11 13    02 51.44   +23 50.1    0.190    1.178   172.5     6.3    20.6
2007 11 14    02 45.34   +25 44.2    0.197    1.183   169.7     8.6    20.8
2007 11 15    02 39.48   +27 29.7    0.203    1.188   167.1    10.7    21.0
2007 11 16    02 33.87   +29 06.9    0.211    1.193   164.6    12.7    21.2
2007 11 17    02 28.52   +30 36.4    0.218    1.199   162.3    14.6    21.3
2007 11 18    02 23.42   +31 58.6    0.226    1.204   160.0    16.3    21.5
2007 11 19    02 18.58   +33 14.2    0.234    1.209   157.9    17.9    21.6
2007 11 20    02 14.00   +34 23.5    0.243    1.214   155.9    19.4    21.7
2007 11 21    02 09.66   +35 27.1    0.251    1.219   154.0    20.8    21.9
2007 11 22    02 05.58   +36 25.5    0.260    1.224   152.2    22.1    22.0
2007 11 23    02 01.74   +37 19.1    0.269    1.229   150.6    23.3    22.1
2007 11 24    01 58.13   +38 08.3    0.279    1.234   148.9    24.4    22.2
2007 11 25    01 54.76   +38 53.6    0.288    1.240   147.4    25.4    22.3
2007 11 26    01 51.60   +39 35.2    0.298    1.245   145.9    26.4    22.4

Timothy B. Spahr             (C) Copyright 2007 MPC           M.P.E.C. 2007-V68

Read MPEC 2007-V67 Read MPEC 2007-V69


MPEC number:

Enter an MPEC number in one of the following forms:

  • 1997-B01 (the full form)
  • J97B01 (the packed version of the full form)
  • B01 (the abbreviated form)

Valid HTML 4.01!